Vorticity
11 19 6 6 4 8 -1 -3 -10 4 11 20 10 3 6 9 7 3 3 8 9 8 10 4 6 3 3 6 43 20 15 12 8 -4 19 24 18 16 44 15 20 1 27 -7
2 7 2 19 9 8 6 4 5 5 1 -2 4 0 4 5 10 13 5 7 9 10 -2 -2 7 3 3 9 30 9 3 12 10 3 20 24 32 27 28 23 -0 -1 25 -5
6 -5 28 25 17 9 12 5 10 10 6 2 6 9 1 8 12 12 8 8 11 10 10 0 9 3 3 9 15 22 4 6 6 20 9 19 4 25 40 20 6 -20 1 7
7 12 -0 -7 0 15 9 17 14 7 5 7 15 3 22 15 20 26 5 3 8 10 12 -0 11 4 3 10 8 19 19 4 12 15 6 22 36 -8 18 8 7 23 35 12
16 -1 19 18 -3 -17 14 15 6 16 13 11 16 -3 -1 9 14 3 16 22 20 15 14 9 10 5 3 8 9 9 17 20 13 5 8 -1 11 14 7 13 15 -23 -12 12
8 -13 3 27 19 13 2 15 6 10 14 27 12 3 17 12 1 4 22 14 18 10 7 8 6 4 3 6 8 9 9 16 21 17 12 9 10 2 3 29 29 -0 20 7
26 24 11 -8 3 22 -3 10 21 21 23 -3 16 25 -4 6 11 17 -2 2 9 21 2 4 9 7 5 4 8 7 8 9 13 22 26 14 19 6 15 -5 16 33 -8 14
-1 21 43 15 1 -10 24 2 -41 25 14 12 21 11 20 27 -2 0 17 13 16 15 8 9 11 7 6 5 5 7 6 7 7 11 18 26 23 20 11 -21 7 16 12 26
20 23 5 14 32 19 1 18 -2 -0 2 17 -8 15 -6 4 4 10 2 2 10 8 8 9 16 6 8 9 6 5 5 5 7 8 9 15 20 18 17 13 -1 5 16 3
5 20 19 12 26 21 10 -3 15 9 12 6 13 -5 -21 29 8 10 7 16 9 15 9 7 17 4 0 12 9 4 3 4 2 4 6 7 8 13 15 14 20 20 17 15
4 14 13 -8 13 20 22 7 -4 11 12 -8 10 18 48 36 11 -9 7 18 10 13 15 11 18 5 1 3 11 6 6 7 6 4 3 3 6 7 7 8 8 9 10 12
-0 13 18 15 -28 -8 13 40 4 -26 22 22 -12 8 34 18 10 27 17 24 8 15 14 14 13 9 4 -0 7 5 2 3 5 9 5 4 2 2 3 4 4 5 6 6
15 17 15 22 23 11 15 6 10 35 29 12 -13 13 48 52 -10 -4 -4 8 3 9 25 33 12 14 10 3 7 7 7 7 8 7 8 9 4 4 3 2 3 3 3 4
-1 8 -0 -17 -39 -0 24 9 14 7 13 17 13 12 -17 -30 -10 -0 12 3 9 11 15 18 11 10 16 15 6 6 9 10 11 6 8 8 9 11 4 4 3 2 2 5
3 7 6 9 5 -2 -1 2 3 4 6 -0 4 4 12 10 21 12 7 1 -0 12 10 14 15 1 15 9 4 7 6 9 8 11 12 15 11 6 5 11 10 5 5 4
13 18 12 16 8 5 7 7 1 -0 2 8 8 6 1 3 -3 -11 0 9 3 10 -2 8 15 20 10 4 13 9 8 8 3 14 17 19 19 16 13 11 16 11 9 8
13 22 14 15 18 19 35 18 16 12 7 5 3 5 1 9 12 18 23 1 13 18 12 7 1 12 15 15 4 9 6 4 3 9 12 9 5 4 4 6 6 8 11 9
-4 3 4 21 2 18 4 12 18 14 33 37 14 4 12 4 19 10 12 17 9 3 19 13 13 19 4 9 17 7 3 6 3 6 4 2 2 4 4 3 3 4 2 2
13 7 14 -5 15 -34 -2 5 -4 18 27 2 41 30 -0 23 36 25 16 24 6 13 8 -0 0 2 9 7 -4 1 20 10 8 7 -0 -1 1 -1 5 9 10 10 11 13
17 12 -1 16 6 19 12 13 48 3 -2 -2 15 13 18 19 22 18 9 6 -0 7 3 9 10 7 13 9 -6 -2 5 3 12 7 6 11 10 7 6 8 10 8 12 15
9 10 7 10 -11 19 6 3 -0 22 3 -10 -12 3 19 7 1 17 29 12 9 13 7 11 5 11 15 8 13 13 -7 14 1 -8 23 7 7 6 11 4 6 13 15 15
29 -23 29 28 11 19 32 21 19 4 -0 -3 -0 13 24 22 18 20 40 2 5 3 6 6 6 -1 20 13 22 19 22 9 18 10 25 14 13 8 4 10 12 9 9 10
-2 -15 -14 2 15 4 -3 7 -3 20 42 18 19 8 28 35 1 19 25 31 27 23 27 23 16 25 16 11 17 6 13 36 22 5 5 13 7 10 13 10 10 5 10 12
3 11 8 7 22 15 6 4 3 2 14 -6 6 26 7 8 6 34 11 13 22 24 25 27 17 12 20 17 35 29 26 4 10 14 27 8 8 8 9 2 0 14 10 7
6 4 13 16 16 8 20 12 11 -3 3 7 6 54 6 24 -11 7 36 -9 11 -2 -10 25 29 22 23 34 24 14 16 16 11 0 7 5 -3 0 2 24 16 8 8 8
14 14 9 2 -0 7 11 10 6 14 18 3 2 18 -1 9 23 16 3 15 65 -18 11 -10 25 19 19 14 11 5 6 4 1 7 12 14 10 18 13 5 4 6 10 14
Height
3066 3067 3063 3068 3070 3072 3071 3067 3062 3064 3067 3065 3066 3064 3064 3065 3064 3064 3063 3063 3063 3063 3060 3056 3056 3052 3049 3044 3040 3040 3040 3042 3043 3045 3043 3039 3038 3041 3047 3056 3066 3074 3080 3086
3066 3058 3061 3065 3067 3067 3067 3065 3061 3062 3063 3062 3061 3058 3058 3059 3058 3058 3058 3058 3059 3060 3055 3053 3052 3050 3047 3043 3040 3041 3040 3040 3041 3041 3038 3030 3030 3033 3044 3051 3062 3070 3076 3082
3057 3057 3057 3056 3058 3061 3060 3058 3059 3058 3059 3057 3056 3052 3052 3051 3050 3051 3052 3052 3053 3054 3052 3049 3049 3048 3046 3043 3040 3039 3039 3038 3038 3038 3036 3035 3031 3036 3044 3053 3060 3067 3072 3078
3050 3054 3053 3052 3053 3057 3053 3056 3055 3054 3055 3048 3052 3040 3042 3043 3042 3043 3045 3046 3047 3048 3048 3045 3046 3045 3044 3042 3040 3038 3038 3037 3036 3037 3039 3038 3039 3042 3047 3054 3059 3064 3069 3075
3042 3046 3045 3044 3045 3049 3049 3052 3050 3049 3047 3047 3044 3042 3037 3038 3037 3038 3039 3040 3041 3042 3043 3041 3043 3043 3042 3040 3040 3039 3037 3035 3035 3036 3038 3041 3044 3047 3052 3055 3059 3063 3068 3073
3037 3041 3040 3039 3042 3044 3048 3047 3047 3044 3043 3036 3035 3035 3030 3031 3031 3032 3033 3035 3036 3037 3037 3037 3039 3040 3039 3039 3039 3039 3038 3035 3034 3034 3037 3041 3044 3048 3050 3052 3057 3062 3067 3070
3031 3029 3031 3034 3036 3037 3042 3044 3040 3035 3030 3023 3027 3025 3024 3026 3026 3028 3030 3032 3032 3031 3032 3033 3035 3038 3038 3038 3038 3038 3038 3037 3035 3035 3036 3039 3043 3047 3050 3054 3057 3061 3065 3068
3025 3021 3021 3024 3025 3031 3034 3039 3035 3028 3020 3020 3018 3014 3017 3020 3023 3025 3025 3027 3029 3028 3029 3030 3032 3035 3036 3037 3037 3038 3039 3038 3037 3035 3037 3038 3040 3043 3048 3052 3057 3059 3063 3067
3022 3020 3019 3018 3022 3027 3028 3028 3032 3030 3026 3027 3020 3016 3016 3016 3018 3021 3022 3024 3025 3025 3025 3027 3029 3032 3034 3035 3036 3037 3038 3038 3038 3038 3038 3041 3042 3043 3047 3050 3053 3058 3062 3066
3024 3021 3017 3018 3019 3020 3020 3024 3025 3024 3024 3017 3011 3011 3011 3011 3014 3017 3020 3020 3022 3023 3022 3024 3026 3029 3031 3033 3035 3036 3038 3039 3039 3040 3041 3041 3043 3045 3048 3050 3053 3056 3060 3063
3023 3022 3017 3016 3015 3014 3016 3016 3018 3016 3015 3012 3012 3008 3006 3006 3009 3013 3016 3017 3019 3020 3019 3021 3023 3025 3028 3030 3033 3035 3036 3038 3040 3041 3042 3043 3044 3046 3048 3050 3053 3055 3059 3061
3021 3018 3014 3013 3011 3010 3009 3010 3013 3013 3012 3010 3010 3007 3007 3008 3008 3010 3014 3015 3016 3016 3017 3017 3019 3022 3025 3028 3030 3033 3035 3036 3038 3040 3041 3043 3045 3046 3049 3051 3054 3056 3058 3060
3014 3013 3011 3008 3009 3007 3007 3007 3007 3007 3010 3006 3006 3007 3004 3005 3009 3011 3011 3014 3015 3013 3012 3012 3015 3018 3021 3024 3027 3030 3032 3034 3035 3037 3039 3041 3043 3044 3047 3049 3051 3054 3056 3058
3011 3011 3009 3002 3003 3005 3005 3005 3005 3006 3006 3005 3002 3003 3002 3005 3007 3009 3010 3012 3012 3013 3011 3011 3013 3015 3018 3021 3023 3026 3028 3030 3032 3034 3035 3037 3039 3042 3044 3046 3049 3051 3053 3056
3009 3006 3008 3006 2999 3003 3004 3002 3003 3003 3004 3003 3002 2999 3001 3002 3004 3005 3007 3008 3008 3010 3010 3010 3011 3013 3015 3017 3019 3022 3024 3026 3028 3029 3031 3033 3035 3037 3039 3041 3043 3046 3049 3051
3003 3000 3002 3000 3001 2998 2995 2995 2996 2997 2998 2998 2998 2996 3000 3001 3001 2996 3000 3002 3003 3006 3008 3009 3009 3010 3011 3014 3016 3018 3020 3022 3024 3025 3027 3029 3032 3034 3037 3039 3040 3043 3044 3046
2995 2997 2997 2995 2996 2994 2989 2987 2987 2986 2989 2991 2991 2993 2994 2994 2994 2993 2989 2993 2996 2999 3002 3005 3007 3007 3007 3010 3012 3014 3016 3019 3020 3022 3024 3027 3029 3031 3032 3034 3035 3037 3038 3039
2990 2993 2994 2992 2991 2987 2980 2980 2980 2980 2979 2982 2984 2986 2988 2987 2987 2988 2987 2989 2992 2995 2997 2999 3000 3001 3002 3005 3007 3010 3012 3014 3017 3018 3020 3022 3024 3026 3028 3029 3029 3031 3032 3032
2984 2988 2989 2989 2986 2980 2976 2977 2978 2976 2976 2978 2977 2978 2977 2977 2978 2979 2984 2985 2988 2987 2987 2990 2991 2993 2996 3000 3002 3004 3007 3009 3010 3012 3014 3016 3018 3019 3021 3023 3024 3025 3026 3026
2977 2982 2986 2985 2984 2977 2974 2971 2971 2972 2972 2971 2969 2970 2972 2973 2973 2976 2980 2980 2976 2979 2980 2982 2984 2986 2990 2993 2996 2997 2999 3001 3004 3006 3008 3010 3012 3014 3015 3017 3017 3017 3018 3018
2970 2976 2979 2982 2980 2975 2972 2972 2969 2969 2970 2966 2966 2968 2967 2966 2967 2966 2963 2966 2967 2970 2972 2974 2976 2978 2981 2984 2987 2989 2992 2994 2997 2998 3002 3003 3005 3007 3008 3010 3010 3010 3010 3010
2966 2971 2974 2977 2976 2972 2969 2968 2969 2965 2963 2962 2962 2964 2961 2960 2959 2958 2958 2960 2960 2961 2965 2967 2968 2970 2973 2976 2979 2982 2983 2985 2987 2991 2994 2996 2997 2998 3000 3001 3002 3002 3003 3003
2965 2966 2966 2968 2968 2967 2967 2963 2963 2961 2961 2958 2957 2955 2954 2953 2952 2950 2951 2952 2953 2955 2956 2958 2960 2962 2965 2968 2970 2973 2974 2976 2979 2983 2988 2991 2991 2992 2993 2994 2995 2996 2996 2996
2961 2963 2964 2966 2965 2965 2964 2961 2959 2958 2956 2953 2955 2951 2949 2946 2945 2946 2947 2947 2948 2947 2948 2949 2952 2955 2957 2959 2961 2964 2966 2971 2972 2975 2981 2984 2985 2984 2986 2988 2988 2989 2988 2987
2961 2960 2961 2962 2962 2962 2962 2959 2956 2952 2954 2954 2953 2946 2946 2941 2941 2942 2943 2943 2945 2945 2945 2946 2947 2948 2950 2952 2955 2959 2961 2964 2966 2970 2975 2977 2977 2979 2980 2981 2983 2981 2981 2981
2959 2959 2959 2960 2959 2958 2959 2958 2956 2954 2953 2951 2950 2946 2944 2941 2939 2938 2938 2939 2939 2942 2943 2945 2947 2947 2947 2949 2955 2957 2958 2961 2962 2964 2969 2971 2971 2972 2974 2973 2973 2974 2974 2973